This is the latest recevied weather packets stored in our database for station/object W7BTL. If no packets are shown the sender has not sent any weather packets the latest 10 day(s).
| Time | Temp. | Humidity | Pressure | Rain* | Wind** | Luminosity | Snow |
|---|---|---|---|---|---|---|---|
| 1787930439 | 28.89° C | 63% | 1011.4 hPa | 0 mm | - | 225 W/m² | - |
| 1787930134 | 28.89° C | 63% | 1011.3 hPa | 0 mm | - | 208 W/m² | - |
| 1787929833 | 29.44° C | 62% | 1011.3 hPa | 0 mm | - | 190 W/m² | - |
| 1787929528 | 29.44° C | 62% | 1011.5 hPa | 0 mm | - | 175 W/m² | - |
| 1787929227 | 29.44° C | 63% | 1011.4 hPa | 0 mm | - | 159 W/m² | - |
| 1787928926 | 28.89° C | 63% | 1011.4 hPa | 0 mm | - | 146 W/m² | - |
| 1787928621 | 28.89° C | 64% | 1011.6 hPa | 0 mm | - | 133 W/m² | - |
| 1787928319 | 28.33° C | 65% | 1011.5 hPa | 0 mm | - | 120 W/m² | - |
| 1787928018 | 27.78° C | 68% | 1011.2 hPa | 0 mm | - | 107 W/m² | - |
| 1787927717 | 26.67° C | 71% | 1011.2 hPa | 0 mm | - | 96 W/m² | - |
| 1787927412 | 26.11° C | 72% | 1011.3 hPa | 0 mm | - | 86 W/m² | - |
| 1787927109 | 25.56° C | 75% | 1011.3 hPa | 0 mm | - | 71 W/m² | - |
| 1787926815 | 25° C | 79% | 1011.4 hPa | 0 mm | - | 65 W/m² | - |
| 1787926508 | 23.89° C | 82% | 1011.2 hPa | 0 mm | - | 57 W/m² | - |
| 1787926207 | 23.33° C | 85% | 1011.3 hPa | 0 mm | - | 50 W/m² | - |
| 1787925901 | 22.78° C | 88% | 1011.2 hPa | 0 mm | - | 40 W/m² | - |
| 1787925601 | 22.22° C | 89% | 1011.1 hPa | 0 mm | - | 27 W/m² | - |
| 1787925296 | 22.22° C | 90% | 1011.2 hPa | 0 mm | - | 19 W/m² | - |
| 1787924995 | 22.22° C | 91% | 1010.9 hPa | 0 mm | - | 16 W/m² | - |
| 1787924690 | 22.22° C | 91% | 1010.9 hPa | 0 mm | - | 13 W/m² | - |
| 1787924390 | 22.22° C | 91% | 1011 hPa | 0 mm | - | 11 W/m² | - |
| 1787924085 | 22.22° C | 91% | 1010.8 hPa | 0 mm | - | 8 W/m² | - |
| 1787923780 | 22.22° C | 91% | 1011 hPa | 0 mm | - | 5 W/m² | - |
| 1787923474 | 21.67° C | 91% | 1010.7 hPa | 0 mm | - | 3 W/m² | - |
| 1787923170 | 21.67° C | 91% | 1010.7 hPa | 0 mm | - | 2 W/m² | - |
* Rain latest hour (hover to see other rain measurements)
** Current wind speed in m/s (hover to see current wind gust speed)